User: anonymous
Location: Caltech
(34.1382°N, 118.1253°W)
Time: 04:49:26
(UTC-07:00)
Language:

Cosmos 1939 - Orbit

View from above orbital plane
View from above orbital plane
View from above satellite
View from above satellite

Ground track
Ground track

The orbit data is extracted from the following two-line orbital elements,

1 19045U 88032A   14272.12079097  .00240548  00000-0  87237-3 0  9590
2 19045 097.2014 343.4818 0000297 169.6287 248.6263 15.87950558456887
Epoch (UTC): 29 September 2014 02:53:56
Eccentricity: 0.0000297
inclination: 97.2014°
perigee height: 308 km
apogee height: 308 km
right ascension of ascending node: 343.4818°
argument of perigee: 169.6287°
revolutions per day: 15.87950558
mean anomaly at epoch: 248.6263°
orbit number at epoch: 45688

The dashed part of the orbit path shows where the satellite is in the earth's shadow,  

DLR